Fort Meade, MD

7:07 PM EDT on September 25, 2017 (GMT -0400)
Tipton

Weather History for KFME - October, 2011

Change the Weather History Date:

Wednesday, October 26, 2011

  Actual Average (KBWI) Record (KBWI)
Temperature  
Mean Temperature 52 °F -  
Max Temperature 60 °F 63 °F 81 °F (1978)
Min Temperature 44 °F 43 °F 27 °F (1952)
Degree Days  
Heating Degree Days 13    
Growing Degree Days 2 (Base 50)    
Moisture  
Dew Point 47 °F    
Average Humidity 85    
Maximum Humidity 100    
Minimum Humidity 55    
Precipitation  
Precipitation 0.00 in - - ()
Sea Level Pressure  
Sea Level Pressure 29.95 in    
Wind  
Wind Speed 3 mph (SW)    
Max Wind Speed 10 mph    
Max Gust Speed -    
Visibility 9 miles    
Events      
Averages and records for this station are not official NWS values.
T = Trace of Precipitation, MM = Missing Value Source: NWS Daily Summary

Daily Weather History Graph

Daily Weather History Graph

Search for Another Location

Airport or City:

Trip Planner

Search our weather history database for the weather conditions in past years. The results will help you decide how hot, cold, wet, or windy it might be!

Date:

Astronomy

Oct. 26, 2011 Rise Set
Actual Time 7:27 AM EDT 6:13 PM EDT
Civil Twilight 7:00 AM EDT 6:41 PM EDT
Nautical Twilight 6:29 AM EDT 7:12 PM EDT
Astronomical Twilight 5:58 AM EDT 7:43 PM EDT
Moon 7:12 AM EDT (10/26) 5:55 PM EDT (10/26)
Length of Visible Light 11h 40m
Length of Day
10h 45m
Waning Crescent, 0% of the Moon is Illuminated
Oct 26
Waning Crescent
Oct 26
New
Nov 2
First Quarter
Nov 10
Full
Nov 18
Last Quarter

Hourly Weather History & Observations

Time (EDT) Temp. Windchill Dew Point Humidity Pressure Visibility Wind Dir Wind Speed Gust Speed Precip Events Conditions
12:06 AM 46.4 °F - 44.6 °F 93% 30.08 in 10.0 mi Calm Calm - N/A   Clear
12:24 AM 46.4 °F - 44.6 °F 93% 30.08 in 10.0 mi Calm Calm - N/A   Clear
12:45 AM 46.4 °F - 44.6 °F 93% 30.07 in 10.0 mi Calm Calm - N/A   Clear
1:03 AM 46.4 °F 44.3 °F 44.6 °F 93% 30.06 in 10.0 mi SSW 4.6 mph - N/A   Clear
1:24 AM 46.4 °F 43.5 °F 44.6 °F 93% 30.06 in 10.0 mi SW 5.8 mph - N/A   Clear
1:42 AM 46.4 °F 44.3 °F 46.4 °F 100% 30.06 in 10.0 mi SW 4.6 mph - N/A   Clear
2:03 AM 46.4 °F 43.5 °F 44.6 °F 93% 30.05 in 10.0 mi SW 5.8 mph - N/A   Clear
2:21 AM 46.4 °F 42.9 °F 44.6 °F 93% 30.05 in 10.0 mi SW 6.9 mph - N/A   Clear
2:39 AM 48.2 °F - 44.6 °F 87% 30.04 in 10.0 mi SW 5.8 mph - N/A   Clear
3:18 AM 48.2 °F - 44.6 °F 87% 30.03 in 10.0 mi SW 6.9 mph - N/A   Clear
3:39 AM 48.2 °F - 44.6 °F 87% 30.03 in 10.0 mi SW 4.6 mph - N/A   Clear
3:57 AM 48.2 °F - 44.6 °F 87% 30.01 in 10.0 mi SW 4.6 mph - N/A   Clear
4:18 AM 46.4 °F 45.2 °F 44.6 °F 93% 30.00 in 10.0 mi SW 3.5 mph - N/A   Clear
4:36 AM 46.4 °F - 44.6 °F 93% 30.00 in 10.0 mi Calm Calm - N/A   Clear
4:57 AM 46.4 °F - 42.8 °F 87% 29.99 in 10.0 mi Calm Calm - N/A   Clear
5:15 AM 44.6 °F - 42.8 °F 93% 29.98 in 10.0 mi Calm Calm - N/A   Clear
5:33 AM 44.6 °F - 42.8 °F 93% 29.98 in 10.0 mi Calm Calm - N/A   Clear
5:54 AM 44.6 °F - 42.8 °F 93% 29.97 in 10.0 mi Calm Calm - N/A   Clear
6:12 AM 44.6 °F - 42.8 °F 93% 29.97 in 10.0 mi Calm Calm - N/A   Clear
6:33 AM 44.6 °F 43.1 °F 42.8 °F 93% 29.97 in 10.0 mi SW 3.5 mph - N/A   Clear
6:51 AM 44.6 °F 42.2 °F 42.8 °F 93% 29.96 in 10.0 mi SW 4.6 mph - N/A   Clear
7:12 AM 44.6 °F 43.1 °F 42.8 °F 93% 29.95 in 10.0 mi SW 3.5 mph - N/A   Clear
7:30 AM 44.6 °F 42.2 °F 42.8 °F 93% 29.95 in 10.0 mi SW 4.6 mph - N/A   Clear
7:51 AM 46.4 °F 45.2 °F 42.8 °F 87% 29.95 in 10.0 mi SW 3.5 mph - N/A   Clear
8:09 AM 46.4 °F 44.3 °F 42.8 °F 87% 29.96 in 10.0 mi WSW 4.6 mph - N/A   Clear
8:27 AM 50.0 °F - 44.6 °F 82% 29.96 in 10.0 mi WSW 5.8 mph - N/A   Clear
8:48 AM 51.8 °F - 44.6 °F 76% 29.96 in 10.0 mi SW 6.9 mph - N/A   Clear
9:06 AM 53.6 °F - 44.6 °F 72% 29.97 in 10.0 mi WSW 4.6 mph - N/A   Clear
9:27 AM 55.4 °F - 46.4 °F 72% 29.97 in 10.0 mi SW 8.1 mph - N/A   Clear
9:45 AM 59.0 °F - 46.4 °F 63% 29.97 in 10.0 mi West 8.1 mph - N/A   Clear
10:06 AM 60.8 °F - 44.6 °F 55% 29.96 in 10.0 mi WSW 6.9 mph - N/A   Clear
10:24 AM 60.8 °F - 46.4 °F 59% 29.95 in 10.0 mi SW 5.8 mph - N/A   Clear
10:42 AM 60.8 °F - 44.6 °F 55% 29.94 in 10.0 mi SW 6.9 mph - N/A   Clear
11:03 AM 60.8 °F - 46.4 °F 59% 29.93 in 10.0 mi SW 8.1 mph - N/A   Clear
11:21 AM 60.8 °F - 46.4 °F 59% 29.91 in 10.0 mi SSW 8.1 mph - N/A   Clear
11:42 AM 60.8 °F - 46.4 °F 59% 29.89 in 10.0 mi SSW 6.9 mph - N/A   Clear
12:00 PM 60.8 °F - 46.4 °F 59% 29.89 in 10.0 mi SW 3.5 mph - N/A   Clear
12:21 PM 60.8 °F - 48.2 °F 63% 29.88 in 10.0 mi SW 4.6 mph - N/A   Clear
12:39 PM 60.8 °F - 50.0 °F 68% 29.88 in 10.0 mi SW 9.2 mph - N/A   Mostly Cloudy
12:57 PM 59.0 °F - 51.8 °F 77% 29.90 in 7.0 mi North 6.9 mph - N/A   Overcast
1:18 PM 55.4 °F - 51.8 °F 88% 29.90 in 10.0 mi West 3.5 mph - N/A   Mostly Cloudy
1:36 PM 55.4 °F - 53.6 °F 94% 29.90 in 7.0 mi WSW 3.5 mph - N/A   Mostly Cloudy
1:57 PM 55.4 °F - 53.6 °F 94% 29.90 in 7.0 mi SW 3.5 mph - N/A   Mostly Cloudy
2:15 PM 55.4 °F - 53.6 °F 94% 29.88 in 5.0 mi Calm Calm - N/A   Scattered Clouds
2:36 PM 55.4 °F - 53.6 °F 94% 29.88 in 7.0 mi Calm Calm - N/A   Mostly Cloudy
2:54 PM 55.4 °F - 53.6 °F 94% 29.85 in 4.0 mi Calm Calm - N/A   Overcast
3:12 PM 55.4 °F - 53.6 °F 94% 29.85 in 7.0 mi SSW 10.4 mph - N/A   Overcast
3:33 PM 55.4 °F - 53.6 °F 94% 29.86 in 10.0 mi West 3.5 mph - N/A   Overcast
3:51 PM 55.4 °F - 53.6 °F 94% 29.87 in 5.0 mi WSW 5.8 mph - N/A   Overcast
4:12 PM 55.4 °F - 53.6 °F 94% 29.83 in 5.0 mi South 4.6 mph - N/A   Overcast
4:30 PM 55.4 °F - 53.6 °F 94% 29.84 in 5.0 mi Calm Calm - N/A   Mostly Cloudy
4:51 PM 55.4 °F - 55.4 °F 100% 29.83 in 5.0 mi Calm Calm - N/A   Mostly Cloudy
5:09 PM 57.2 °F - 55.4 °F 94% 29.84 in 10.0 mi Calm Calm - N/A   Mostly Cloudy
5:27 PM 57.2 °F - 55.4 °F 94% 29.83 in 5.0 mi Calm Calm - N/A   Scattered Clouds
5:48 PM 55.4 °F - 55.4 °F 100% 29.83 in 3.0 mi Calm Calm - N/A   Clear
6:06 PM 55.4 °F - 53.6 °F 94% 29.83 in 2.0 mi Calm Calm - N/A   Clear
6:27 PM 53.6 °F - 51.8 °F 94% 29.82 in 0.5 mi Calm Calm - N/A   Unknown
6:45 PM 53.6 °F - 51.8 °F 94% 29.82 in 2.5 mi Calm Calm - N/A   Clear
7:06 PM 51.8 °F - 51.8 °F 100% 29.83 in 3.0 mi Calm Calm - N/A   Scattered Clouds
7:24 PM 51.8 °F - 51.8 °F 100% 29.83 in 0.5 mi Calm Calm - N/A   Mostly Cloudy
7:45 PM 51.8 °F - 50.0 °F 94% 29.82 in 0.5 mi Calm Calm - N/A   Unknown
8:03 PM 51.8 °F - 50.0 °F 94% 29.82 in 2.5 mi Calm Calm - N/A   Clear
8:21 PM 50.0 °F - 50.0 °F 100% 29.81 in 0.8 mi Calm Calm - N/A   Unknown
8:42 PM 50.0 °F - 50.0 °F 100% 29.82 in 3.0 mi Calm Calm - N/A   Clear
9:00 PM 50.0 °F - 50.0 °F 100% 29.82 in 3.0 mi Calm Calm - N/A   Scattered Clouds
9:21 PM 50.0 °F - 50.0 °F 100% 29.82 in 3.0 mi Calm Calm - N/A   Mostly Cloudy
10:00 PM 51.8 °F - 50.0 °F 94% 29.82 in 4.0 mi Calm Calm - N/A   Mostly Cloudy
10:18 PM 51.8 °F - 50.0 °F 94% 29.82 in 4.0 mi Calm Calm - N/A   Scattered Clouds
10:36 PM 51.8 °F - 50.0 °F 94% 29.82 in 4.0 mi Calm Calm - N/A   Mostly Cloudy
10:57 PM 51.8 °F - 51.8 °F 100% 29.81 in 4.0 mi Calm Calm - N/A   Overcast
11:36 PM 51.8 °F - 51.8 °F 100% 29.80 in 3.0 mi Calm Calm - N/A   Scattered Clouds
11:54 PM 51.8 °F - 50.0 °F 94% 29.79 in 3.0 mi Calm Calm - N/A   Scattered Clouds